Weather History for KVGT - June, 2014

Change the Weather History Date:

Wednesday, June 4, 2014

  Actual Average Record
Temperature  
Mean Temperature 84 °F -  
Max Temperature 100 °F 97 °F 115 °F (1957)
Min Temperature 69 °F 68 °F 40 °F (1951)
Cooling Degree Days 18    
Growing Degree Days 34 (Base 50)    
Moisture  
Dew Point 1 °F    
Average Humidity 6    
Maximum Humidity 15    
Minimum Humidity 4    
Precipitation  
Precipitation 0.00 in - - ()
Sea Level Pressure  
Sea Level Pressure 29.73 in    
Wind  
Wind Speed 3 mph (SW)    
Max Wind Speed 14 mph    
Max Gust Speed 20 mph    
Visibility 10 miles    
Events      
Averages and records for this station are not official NWS values.
T = Trace of Precipitation, MM = Missing Value Source: NWS Daily Summary

Daily Weather History Graph

Daily Weather History Graph

Search for Another Location

Airport or City:

Trip Planner

Search our weather history database for the weather conditions in past years. The results will help you decide how hot, cold, wet, or windy it might be!

Date:

Astronomy

Jun. 04, 2014 Rise Set
Actual Time 5:23 AM PDT 7:54 PM PDT
Civil Twilight 4:53 AM PDT 8:24 PM PDT
Nautical Twilight 4:16 AM PDT 9:01 PM PDT
Astronomical Twilight 3:35 AM PDT 9:42 PM PDT
Moon 11:39 AM PDT (6/4) 12:03 AM PDT (6/4)
Length of Visible Light 15h 30m
Length of Day
14h 30m
Waxing Crescent, 40% of the Moon is Illuminated
Jun 4
Waxing Crescent
Jun 5
First Quarter
Jun 12
Full
Jun 19
Last Quarter
Jun 27
New

Hourly Weather History & Observations

Time (PDT) Temp. Dew Point Humidity Pressure Visibility Wind Dir Wind Speed Gust Speed Precip Events Conditions
12:53 AM 75.9 °F 10.0 °F 8% 29.73 in 10.0 mi Calm Calm - N/A   Clear
1:53 AM 75.0 °F 7.0 °F 7% 29.73 in 10.0 mi NNE 4.6 mph - N/A   Clear
2:53 AM 73.9 °F 8.1 °F 8% 29.73 in 10.0 mi West 3.5 mph - N/A   Clear
3:53 AM 72.0 °F 15.1 °F 11% 29.73 in 10.0 mi Calm Calm - N/A   Clear
4:53 AM 69.1 °F 19.9 °F 15% 29.74 in 10.0 mi Calm Calm - N/A   Clear
5:53 AM 70.0 °F 16.0 °F 13% 29.75 in 10.0 mi NW 3.5 mph - N/A   Clear
6:53 AM 73.0 °F 12.9 °F 10% 29.76 in 10.0 mi NW 3.5 mph - N/A   Clear
7:53 AM 77.0 °F 8.6 °F 7% 29.81 in 10.0 mi ESE 3.5 mph - N/A   Clear
8:53 AM 81.0 °F 5.0 °F 5% 29.79 in 10.0 mi Calm Calm - N/A   Clear
9:53 AM 86.0 °F -0.0 °F 4% 29.78 in 10.0 mi NNE 4.6 mph - N/A   Clear
10:53 AM 89.1 °F -2.0 °F 4% 29.78 in 10.0 mi SSE 5.8 mph - N/A   Clear
11:53 AM 91.0 °F 3.9 °F 4% 29.78 in 10.0 mi Variable 4.6 mph - N/A   Clear
12:53 PM 93.0 °F 1.0 °F 4% 29.75 in 10.0 mi Variable 3.5 mph 17.3 mph N/A   Clear
1:53 PM 96.1 °F -8.0 °F 4% 29.73 in 10.0 mi SW 10.4 mph 17.3 mph N/A   Clear
2:53 PM 97.0 °F -14.1 °F 4% 29.71 in 10.0 mi SSE 13.8 mph 19.6 mph N/A   Clear
3:53 PM 98.1 °F -20.0 °F 4% 29.69 in 10.0 mi Variable 5.8 mph 16.1 mph N/A   Clear
4:53 PM 98.1 °F -20.9 °F 4% 29.68 in 10.0 mi Variable 5.8 mph 17.3 mph N/A   Clear
5:53 PM 98.1 °F -20.9 °F 4% 29.66 in 10.0 mi South 6.9 mph - N/A   Clear
6:53 PM 97.0 °F -20.9 °F 4% 29.67 in 10.0 mi SSW 8.1 mph - N/A   Clear
7:53 PM 95.0 °F -7.6 °F 4% 29.70 in 10.0 mi SW 4.6 mph - N/A   Clear
8:53 PM 91.9 °F 1.0 °F 4% 29.68 in 10.0 mi West 5.8 mph - N/A   Clear
9:53 PM 88.0 °F 6.1 °F 5% 29.70 in 10.0 mi Calm Calm - N/A   Clear
10:53 PM 86.0 °F 5.0 °F 5% 29.72 in 10.0 mi Calm Calm - N/A   Clear
11:53 PM 79.0 °F 14.0 °F 9% 29.73 in 10.0 mi Calm Calm - N/A   Clear